HS2XQB-3 Weather Reports


Display with metric or nautical units.
time (UTC)temp
F
wind
direction
speed
MPH
gust
MPH
rain 1hr
in
rain 24hr
in
rain mn
in
humidity
%
barometer
mb
20260504044643 76 0 0.0 0.0 0.00 0.00 0.00 45 1006.0
20260504041621 77 0 0.0 0.0 0.00 0.00 0.00 56 1006.0
20260504034559 76 0 0.0 0.0 0.00 0.00 0.00 45 1006.0
20260504031537 76 0 0.0 0.0 0.00 0.00 0.00 49 1006.0
20260504024515 78 0 0.0 0.0 0.00 0.00 0.00 56 1007.0
20260504021453 77 0 0.0 0.0 0.00 0.00 0.00 46 1006.0
20260504014431 79 0 0.0 0.0 0.00 0.00 0.00 60 1007.0
20260504011409 75 0 0.0 0.0 0.00 0.00 0.00 50 1006.0
20260504004347 75 0 0.0 0.0 0.00 0.00 0.00 55 1006.0
20260504001325 76 0 0.0 0.0 0.00 0.00 0.00 65 1006.0
20260503234303 75 0 0.0 0.0 0.00 0.00 0.00 68 1005.0
20260503231241 76 0 0.0 0.0 0.00 0.00 0.00 79 1005.0
20260503224219 75 0 0.0 0.0 0.00 0.00 0.00 70 1005.0
20260503221157 75 0 0.0 0.0 0.00 0.00 0.00 76 1005.0
20260503214135 76 0 0.0 0.0 0.00 0.00 0.00 75 1004.0
20260503211113 74 0 0.0 0.0 0.00 0.00 0.00 67 1004.0
20260503204051 75 0 0.0 0.0 0.00 0.00 0.00 75 1004.0
20260503201029 76 0 0.0 0.0 0.00 0.00 0.00 77 1004.0
20260503194007 75 0 0.0 0.0 0.00 0.00 0.00 70 1005.0
20260503190945 76 0 0.0 0.0 0.00 0.00 0.00 73 1005.0
20260503183922 76 0 0.0 0.0 0.00 0.00 0.00 76 1005.0
20260503180900 75 0 0.0 0.0 0.00 0.00 0.00 69 1005.0
20260503173838 75 0 0.0 0.0 0.00 0.00 0.00 70 1005.0